BAW1623 EGLL-EBBR

Flight info

Callsign BAW1623
Flight time 0h 42m
Altitude 23000
Route DET Q70 KOK
Aircraft A320/M-SDE3FGHIRWY/LB1

Departure

Time 2026-05-06 09:41
Airport London Heathrow Airport (EGLL)

Arrival

Time 2026-05-06 10:23
Airport Brussels Airport (EBBR)
Time Latitude Longitude Altitude Speed Heading
2026-05-06 08:50 51.46984 -0.47720 86 ft 0 kts 90°
2026-05-06 09:25 51.46984 -0.47730 90 ft 4 kts 89°
2026-05-06 09:25 51.46983 -0.47773 86 ft 4 kts 86°
2026-05-06 09:25 51.46981 -0.47816 85 ft 4 kts 89°
2026-05-06 09:26 51.46984 -0.47857 84 ft 4 kts 123°
2026-05-06 09:26 51.46991 -0.47870 83 ft 1 kts 179°
2026-05-06 09:29 51.46987 -0.47870 83 ft 3 kts 179°
2026-05-06 09:29 51.46939 -0.47867 80 ft 11 kts 176°
2026-05-06 09:29 51.46856 -0.47866 83 ft 14 kts 180°
2026-05-06 09:29 51.46744 -0.47868 84 ft 18 kts 180°
2026-05-06 09:30 51.46655 -0.47951 85 ft 12 kts 263°
2026-05-06 09:30 51.46655 -0.47957 86 ft 0 kts 266°
2026-05-06 09:35 51.46654 -0.47975 85 ft 7 kts 266°
2026-05-06 09:35 51.46651 -0.48132 86 ft 18 kts 271°
2026-05-06 09:35 51.46654 -0.48338 88 ft 19 kts 271°
2026-05-06 09:35 51.46605 -0.48467 89 ft 10 kts 192°
2026-05-06 09:36 51.46596 -0.48467 91 ft 0 kts 181°
2026-05-06 09:36 51.46594 -0.48468 91 ft 1 kts 181°
2026-05-06 09:36 51.46589 -0.48468 90 ft 0 kts 181°
2026-05-06 09:38 51.46588 -0.48468 89 ft 1 kts 181°
2026-05-06 09:39 51.46556 -0.48469 89 ft 8 kts 181°
2026-05-06 09:39 51.46481 -0.48398 88 ft 13 kts 100°
2026-05-06 09:39 51.46478 -0.48351 87 ft 0 kts 91°
2026-05-06 09:40 51.46478 -0.48273 87 ft 33 kts 89°
2026-05-06 09:40 51.46491 -0.45983 85 ft 158 kts 89°
2026-05-06 09:41 51.46477 -0.44181 664 ft 158 kts 86°
2026-05-06 09:41 51.46474 -0.42412 1399 ft 162 kts 89°
2026-05-06 09:41 51.46039 -0.40619 1766 ft 190 kts 123°
2026-05-06 09:41 51.45217 -0.38821 2172 ft 205 kts 120°
2026-05-06 09:42 51.44459 -0.36859 2827 ft 209 kts 117°
2026-05-06 09:42 51.43760 -0.34801 3504 ft 209 kts 107°
2026-05-06 09:42 51.43384 -0.32558 4181 ft 209 kts 97°
2026-05-06 09:42 51.43057 -0.30260 4825 ft 214 kts 97°
2026-05-06 09:43 51.42717 -0.27907 5459 ft 219 kts 98°
2026-05-06 09:43 51.42379 -0.25474 5933 ft 235 kts 97°
2026-05-06 09:43 51.42011 -0.22710 6008 ft 269 kts 98°
2026-05-06 09:43 51.41609 -0.19721 6007 ft 277 kts 98°
2026-05-06 09:44 51.41195 -0.16699 6009 ft 278 kts 98°
2026-05-06 09:44 51.40778 -0.13688 6512 ft 276 kts 98°
2026-05-06 09:44 51.40357 -0.10651 7272 ft 282 kts 99°
2026-05-06 09:44 51.39930 -0.07571 8033 ft 284 kts 99°
2026-05-06 09:45 51.39499 -0.04467 8820 ft 288 kts 100°
2026-05-06 09:45 51.39060 -0.01326 9633 ft 291 kts 99°
2026-05-06 09:45 51.38620 0.01818 10381 ft 296 kts 100°
2026-05-06 09:45 51.38166 0.05079 11139 ft 302 kts 101°
2026-05-06 09:46 51.37703 0.08412 11905 ft 308 kts 101°
2026-05-06 09:46 51.37229 0.11800 12686 ft 314 kts 101°
2026-05-06 09:46 51.36747 0.15235 13497 ft 318 kts 102°
2026-05-06 09:46 51.36258 0.18709 14247 ft 322 kts 102°
2026-05-06 09:47 51.35768 0.22182 14893 ft 328 kts 102°
2026-05-06 09:47 51.35261 0.25766 15571 ft 332 kts 102°
2026-05-06 09:47 51.34747 0.29394 16264 ft 337 kts 102°
2026-05-06 09:47 51.34224 0.33066 17047 ft 340 kts 103°
2026-05-06 09:48 51.33696 0.36766 17757 ft 344 kts 103°
2026-05-06 09:48 51.33150 0.40580 18127 ft 358 kts 103°
2026-05-06 09:48 51.32591 0.44484 18749 ft 362 kts 103°
2026-05-06 09:48 51.32024 0.48426 19353 ft 366 kts 103°
2026-05-06 09:49 51.31448 0.52426 19971 ft 370 kts 104°
2026-05-06 09:49 51.30865 0.56469 20603 ft 373 kts 104°
2026-05-06 09:49 51.30394 0.60497 21227 ft 375 kts 97°
2026-05-06 09:49 51.30218 0.64721 21892 ft 376 kts 94°
2026-05-06 09:50 51.30074 0.68840 22540 ft 377 kts 94°
2026-05-06 09:50 51.29924 0.73044 22977 ft 385 kts 95°
2026-05-06 09:50 51.29764 0.77413 23032 ft 403 kts 95°
2026-05-06 09:50 51.29594 0.81975 23018 ft 421 kts 94°
2026-05-06 09:51 51.29416 0.86720 22975 ft 432 kts 94°
2026-05-06 09:51 51.29237 0.91534 22970 ft 435 kts 94°
2026-05-06 09:51 51.29059 0.96367 22973 ft 436 kts 94°
2026-05-06 09:51 51.28873 1.01230 22973 ft 436 kts 95°
2026-05-06 09:52 51.28685 1.06062 22974 ft 436 kts 95°
2026-05-06 09:52 51.28495 1.10900 22970 ft 436 kts 95°
2026-05-06 09:52 51.28304 1.15730 22971 ft 436 kts 94°
2026-05-06 09:52 51.28112 1.20567 22969 ft 436 kts 95°
2026-05-06 09:53 51.27919 1.25393 22966 ft 436 kts 95°
2026-05-06 09:53 51.27722 1.30231 22966 ft 436 kts 95°
2026-05-06 09:53 51.27523 1.35060 22964 ft 436 kts 95°
2026-05-06 09:53 51.27318 1.39899 22957 ft 436 kts 95°
2026-05-06 09:54 51.27112 1.44716 22962 ft 435 kts 95°
2026-05-06 09:54 51.26908 1.49535 22955 ft 435 kts 95°
2026-05-06 09:54 51.26706 1.54360 22958 ft 435 kts 95°
2026-05-06 09:54 51.26502 1.59185 22955 ft 435 kts 95°
2026-05-06 09:55 51.26296 1.63947 22954 ft 435 kts 95°
2026-05-06 09:55 51.26085 1.68764 22953 ft 435 kts 95°
2026-05-06 09:55 51.25871 1.73581 22955 ft 435 kts 95°
2026-05-06 09:55 51.25653 1.78398 22955 ft 435 kts 95°
2026-05-06 09:56 51.25433 1.83213 22957 ft 435 kts 95°
2026-05-06 09:56 51.25211 1.88022 22956 ft 434 kts 95°
2026-05-06 09:56 51.24987 1.92826 22953 ft 434 kts 95°
2026-05-06 09:56 51.24759 1.97650 22950 ft 434 kts 95°
2026-05-06 09:57 51.24533 2.02441 22954 ft 434 kts 95°
2026-05-06 09:57 51.24304 2.07265 22955 ft 434 kts 95°
2026-05-06 09:57 51.24076 2.12041 22956 ft 434 kts 95°
2026-05-06 09:57 51.23847 2.16836 22949 ft 433 kts 95°
2026-05-06 09:58 51.23615 2.21640 22946 ft 433 kts 95°
2026-05-06 09:58 51.23382 2.26398 22944 ft 433 kts 95°
2026-05-06 09:58 51.23144 2.31180 22935 ft 432 kts 95°
2026-05-06 09:58 51.22692 2.35933 22927 ft 432 kts 104°
2026-05-06 09:59 51.21754 2.40442 22924 ft 431 kts 114°
2026-05-06 09:59 51.20343 2.44661 22922 ft 430 kts 124°
2026-05-06 09:59 51.18522 2.48443 22922 ft 429 kts 131°
2026-05-06 09:59 51.16575 2.52049 22918 ft 429 kts 131°
2026-05-06 10:00 51.14622 2.55655 22921 ft 429 kts 131°
2026-05-06 10:00 51.12676 2.59244 22913 ft 429 kts 131°
2026-05-06 10:00 51.10905 2.63077 22908 ft 430 kts 122°
2026-05-06 10:00 51.09563 2.67317 22907 ft 430 kts 112°
2026-05-06 10:01 51.08683 2.71862 22908 ft 430 kts 102°
2026-05-06 10:01 51.08123 2.76534 22905 ft 430 kts 101°
2026-05-06 10:01 51.07563 2.81227 22909 ft 431 kts 101°
2026-05-06 10:01 51.06999 2.85896 22908 ft 431 kts 101°
2026-05-06 10:02 51.06435 2.90511 22908 ft 431 kts 101°
2026-05-06 10:02 51.05861 2.95181 22908 ft 431 kts 101°
2026-05-06 10:02 51.05287 2.99856 22909 ft 431 kts 101°
2026-05-06 10:02 51.04708 3.04586 22907 ft 431 kts 101°
2026-05-06 10:03 51.04134 3.09259 22901 ft 431 kts 101°
2026-05-06 10:03 51.03562 3.13923 22899 ft 431 kts 101°
2026-05-06 10:03 51.02986 3.18592 22900 ft 431 kts 101°
2026-05-06 10:03 51.02412 3.23212 22897 ft 431 kts 101°
2026-05-06 10:04 51.01829 3.27902 22891 ft 431 kts 101°
2026-05-06 10:04 51.01246 3.32587 22887 ft 430 kts 101°
2026-05-06 10:04 51.00663 3.37242 22898 ft 430 kts 101°
2026-05-06 10:04 51.00078 3.41889 22895 ft 430 kts 101°
2026-05-06 10:05 50.99498 3.46487 22892 ft 430 kts 102°
2026-05-06 10:05 50.98908 3.51127 22898 ft 429 kts 102°
2026-05-06 10:05 50.98315 3.55773 22890 ft 429 kts 102°
2026-05-06 10:05 50.97720 3.60422 22890 ft 429 kts 102°
2026-05-06 10:06 50.97130 3.65040 22889 ft 429 kts 102°
2026-05-06 10:06 50.96534 3.69692 22882 ft 429 kts 102°
2026-05-06 10:06 50.95940 3.74292 22879 ft 428 kts 102°
2026-05-06 10:06 50.95336 3.78961 22882 ft 428 kts 102°
2026-05-06 10:07 50.94746 3.83533 22881 ft 428 kts 102°
2026-05-06 10:07 50.94149 3.88152 22858 ft 426 kts 102°
2026-05-06 10:07 50.93559 3.92675 22577 ft 413 kts 102°
2026-05-06 10:07 50.92981 3.97085 22181 ft 405 kts 102°
2026-05-06 10:08 50.92604 4.01479 21647 ft 401 kts 94°
2026-05-06 10:08 50.92437 4.05879 21127 ft 398 kts 94°
2026-05-06 10:08 50.92266 4.10243 20623 ft 396 kts 94°
2026-05-06 10:08 50.92092 4.14584 20098 ft 393 kts 94°
2026-05-06 10:09 50.91915 4.18901 19584 ft 391 kts 94°
2026-05-06 10:09 50.91738 4.23188 19055 ft 389 kts 94°
2026-05-06 10:09 50.91562 4.27424 18536 ft 387 kts 94°
2026-05-06 10:09 50.91383 4.31717 17954 ft 385 kts 94°
2026-05-06 10:10 50.91209 4.35893 17392 ft 383 kts 94°
2026-05-06 10:10 50.91031 4.40086 16822 ft 379 kts 94°
2026-05-06 10:10 50.90854 4.44218 16267 ft 374 kts 93°
2026-05-06 10:10 50.90678 4.48320 15709 ft 371 kts 93°
2026-05-06 10:11 50.90499 4.52409 15147 ft 370 kts 93°
2026-05-06 10:11 50.90320 4.56468 14588 ft 370 kts 93°
2026-05-06 10:11 50.90137 4.60529 14011 ft 369 kts 93°
2026-05-06 10:11 50.89954 4.64562 13409 ft 365 kts 93°
2026-05-06 10:12 50.89776 4.68539 12864 ft 359 kts 93°
2026-05-06 10:12 50.89603 4.72413 12283 ft 353 kts 93°
2026-05-06 10:12 50.89427 4.76343 11249 ft 362 kts 92°
2026-05-06 10:12 50.89243 4.80354 10255 ft 368 kts 92°
2026-05-06 10:13 50.89055 4.84419 9219 ft 373 kts 92°
2026-05-06 10:13 50.88867 4.88458 8164 ft 360 kts 92°
2026-05-06 10:13 50.88683 4.92344 7144 ft 347 kts 92°
2026-05-06 10:13 50.88503 4.96100 6152 ft 337 kts 92°
2026-05-06 10:14 50.88327 4.99730 5118 ft 329 kts 92°
2026-05-06 10:14 50.88152 5.03303 4267 ft 318 kts 92°
2026-05-06 10:14 50.87986 5.06662 4001 ft 291 kts 92°
2026-05-06 10:14 50.87837 5.09689 3965 ft 264 kts 92°
2026-05-06 10:15 50.87821 5.12556 3974 ft 259 kts 78°
2026-05-06 10:15 50.88452 5.15179 3973 ft 257 kts 54°
2026-05-06 10:15 50.89710 5.17135 3973 ft 253 kts 31°
2026-05-06 10:15 50.91352 5.18073 3968 ft 253 kts
2026-05-06 10:16 50.93083 5.17870 3973 ft 255 kts 344°
2026-05-06 10:16 50.94639 5.16533 3966 ft 258 kts 320°
2026-05-06 10:16 50.95711 5.14235 3972 ft 263 kts 295°
2026-05-06 10:16 50.96071 5.11389 3967 ft 268 kts 270°
2026-05-06 10:17 50.95789 5.08443 3978 ft 271 kts 261°
2026-05-06 10:17 50.95438 5.05504 3971 ft 271 kts 261°
2026-05-06 10:17 50.95086 5.02572 3979 ft 271 kts 261°
2026-05-06 10:17 50.94766 4.99624 3974 ft 270 kts 267°
2026-05-06 10:18 50.94879 4.96675 3978 ft 267 kts 285°
2026-05-06 10:18 50.95518 4.93934 3983 ft 264 kts 301°
2026-05-06 10:18 50.96495 4.91466 3986 ft 264 kts 305°
2026-05-06 10:18 50.97343 4.88880 3986 ft 267 kts 289°
2026-05-06 10:19 50.97522 4.85940 3990 ft 271 kts 265°
2026-05-06 10:19 50.97010 4.83114 3998 ft 264 kts 251°
2026-05-06 10:19 50.96370 4.80399 3996 ft 261 kts 251°
2026-05-06 10:19 50.95734 4.77724 3693 ft 271 kts 250°
2026-05-06 10:20 50.95055 4.74862 3226 ft 278 kts 251°
2026-05-06 10:20 50.94407 4.72038 2837 ft 261 kts 252°
2026-05-06 10:20 50.93822 4.69472 2501 ft 235 kts 252°
2026-05-06 10:20 50.93288 4.67136 2197 ft 218 kts 253°
2026-05-06 10:21 50.92780 4.64910 1914 ft 211 kts 253°
2026-05-06 10:21 50.92292 4.62782 1648 ft 200 kts 253°
2026-05-06 10:21 50.91825 4.60741 1347 ft 195 kts 253°
2026-05-06 10:21 50.91364 4.58732 1078 ft 193 kts 253°
2026-05-06 10:22 50.90935 4.56875 820 ft 164 kts 253°
2026-05-06 10:22 50.90570 4.55281 564 ft 145 kts 252°
2026-05-06 10:22 50.90244 4.53857 373 ft 132 kts 253°
2026-05-06 10:22 50.89929 4.52500 234 ft 130 kts 253°
2026-05-06 10:23 50.89651 4.51214 165 ft 111 kts 250°
2026-05-06 10:23 50.89464 4.50386 168 ft 27 kts 261°
2026-05-06 10:23 50.89490 4.50303 170 ft 8 kts 297°
2026-05-06 10:23 50.89500 4.50249 172 ft 8 kts 285°
2026-05-06 10:24 50.89515 4.50156 173 ft 10 kts 283°
2026-05-06 10:24 50.89526 4.50023 171 ft 15 kts 276°
2026-05-06 10:24 50.89519 4.49868 170 ft 13 kts 252°
2026-05-06 10:24 50.89483 4.49724 171 ft 16 kts 248°
2026-05-06 10:25 50.89426 4.49459 168 ft 22 kts 251°
2026-05-06 10:25 50.89387 4.49292 165 ft 26 kts 250°
2026-05-06 10:25 50.89350 4.49109 165 ft 12 kts 270°
2026-05-06 10:25 50.89410 4.49013 164 ft 15 kts 353°
2026-05-06 10:26 50.89471 4.48962 161 ft 11 kts 280°
2026-05-06 10:26 50.89477 4.48892 160 ft 2 kts 273°
2026-05-06 10:26 50.89478 4.48857 160 ft 0 kts 272°
2026-05-06 10:27 50.89478 4.48852 160 ft 0 kts 271°